Regional Weather Roundup
Issued by NWS

Home | Current Version | Previous Version | Graphics & Text | Print | Product List | Glossary On
Versions: 1 2 3 4 5 6 7 8 9 10 11 12 13 14 15 16 17 18 19 20 21 22 23 24 25 26 27 28 29 30 31 32 33 34 35 36 37 38 39 40 41 42 43 44 45 46 47 48 49 50
000
ASUS43 KBIS 201410
RWRND

NORTH DAKOTA REGIONAL WEATHER ROUNDUP
NATIONAL WEATHER SERVICE BISMARCK ND
800 AM CST MON FEB 20 2017

NOTE: "FAIR" INDICATES FEW OR NO CLOUDS BELOW 12,000 FEET WITH NO
SIGNIFICANT WEATHER AND/OR OBSTRUCTIONS TO VISIBILITY.


NDZ001>003-009>011-017-201500-
NORTHWEST NORTH DAKOTA

CITY           SKY/WX    TMP DP  RH WIND       PRES   REMARKS
WILLISTON      FAIR      32  31  96 SW10      29.73R FOG
MINOT          CLOUDY    34  32  92 W8        29.68R FOG
MINOT AFB      CLOUDY    32  32 100 NW9       29.67R FOG
$$

NDZ018>021-031>035-040>046-201500-
SOUTHWEST NORTH DAKOTA

CITY           SKY/WX    TMP DP  RH WIND       PRES   REMARKS
BISMARCK       LGT RAIN  37  35  92 NW10      29.69R FOG
DICKINSON      FAIR      36  32  85 W10       29.70R
GARRISON         N/A     33  32  96 W7        29.68R
HETTINGER ARPT CLOUDY    37  33  85 NW7       29.74S
$$

NDZ004>008-012>016-024-026-027-054-201500-
NORTHEAST NORTH DAKOTA

CITY           SKY/WX    TMP DP  RH WIND       PRES   REMARKS
GRAND FORKS    LGT RAIN  39  36  89 SW6       29.61R VSB 1
GRND FRKS AFB  LGT RAIN  39  39 100 W6        29.62R VSB 1/4
DEVILS LAKE    LGT RAIN  33  33 100 W9        29.64R FOG
$$

NDZ022-023-025-028>030-036>039-047>053-201500-
SOUTHEAST NORTH DAKOTA

CITY           SKY/WX    TMP DP  RH WIND       PRES   REMARKS
FARGO          LGT RAIN  51  48  89 SE21G30   29.60F
JAMESTOWN      LGT RAIN  38  36  92 NW15      29.62R
$$




USA.gov is the U.S. government's official web portal to all federal, state and local government web resources and services.